| time (UTC) | temp F | wind direction | speed knots | gust knots | rain 1hr in | rain 24hr in | rain mn in | humidity % | barometer mb |
| 20260504150455 | 78 | 307 | 0.9 | 0.9 | 0.00 | 0.00 | 0.00 | 77 | 1014.0 |
| 20260504141253 | 74 | 291 | 0.9 | 0.9 | 0.00 | 0.00 | 0.00 | 88 | 1015.0 |
| 20260504130749 | 73 | 261 | 0.9 | 0.0 | 0.00 | 0.00 | 0.00 | 94 | 1016.0 |
| 20260504120242 | 67 | 157 | 0.0 | 0.0 | 0.00 | 0.00 | 0.00 | 95 | 1016.0 |
| 20260504100533 | 69 | 105 | 0.0 | 0.9 | 0.00 | 0.00 | 0.00 | 93 | 1015.0 |
| 20260504080829 | 65 | 182 | 0.0 | 0.9 | 0.00 | 0.00 | 0.00 | 93 | 1015.0 |
| 20260504070322 | 70 | 193 | 0.0 | 0.9 | 0.00 | 0.00 | 0.00 | 93 | 1015.0 |
| 20260504050617 | 70 | 88 | 0.9 | 0.9 | 0.03 | 0.00 | 0.00 | 89 | 1016.0 |
| 20260504045316 | 71 | 88 | 0.9 | 0.9 | 0.03 | 0.00 | 0.00 | 89 | 1016.0 |
| 20260504044014 | 72 | 88 | 0.9 | 0.9 | 0.02 | 0.00 | 0.00 | 89 | 1016.0 |
| 20260504042714 | 73 | 88 | 0.9 | 0.9 | 0.01 | 0.00 | 0.00 | 89 | 1017.0 |
| 20260504041413 | 74 | 88 | 0.9 | 0.9 | 0.00 | 0.00 | 0.00 | 89 | 1017.0 |
| 20260504040113 | 65 | 107 | 0.9 | 3.5 | 0.04 | 0.00 | 0.00 | 81 | 1017.0 |
| 20260504033511 | 66 | 107 | 0.9 | 3.5 | 0.03 | 0.00 | 0.00 | 81 | 1017.0 |
| 20260504032211 | 67 | 107 | 0.9 | 3.5 | 0.01 | 0.00 | 0.00 | 81 | 1017.0 |
| 20260504030906 | 68 | 107 | 0.9 | 3.5 | 0.00 | 0.00 | 0.00 | 81 | 1017.0 |
| 20260504025605 | 69 | 107 | 0.9 | 3.5 | 0.00 | 0.00 | 0.00 | 81 | 1016.0 |
| 20260504024304 | 70 | 107 | 0.9 | 3.5 | 0.00 | 0.00 | 0.00 | 81 | 1016.0 |
| 20260504023003 | 71 | 107 | 0.9 | 3.5 | 0.00 | 0.00 | 0.00 | 81 | 1016.0 |
| 20260504021703 | 72 | 107 | 0.9 | 3.5 | 0.00 | 0.00 | 0.00 | 81 | 1016.0 |
| 20260504020402 | 73 | 107 | 0.9 | 3.5 | 0.00 | 0.00 | 0.00 | 81 | 1016.0 |
| 20260504015101 | 74 | 107 | 0.9 | 3.5 | 0.00 | 0.00 | 0.00 | 81 | 1015.0 |
| 20260504013800 | 75 | 107 | 0.9 | 3.5 | 0.00 | 0.00 | 0.00 | 81 | 1015.0 |
| 20260504012500 | 76 | 107 | 0.9 | 3.5 | 0.00 | 0.00 | 0.00 | 81 | 1015.0 |
| 20260504011159 | 77 | 107 | 0.9 | 3.5 | 0.00 | 0.00 | 0.00 | 81 | 1015.0 |
| 20260504005857 | 66 | 113 | 0.9 | 3.5 | 0.00 | 0.00 | 0.00 | 74 | 1014.0 |
| 20260504004555 | 67 | 113 | 0.9 | 3.5 | 0.00 | 0.00 | 0.00 | 74 | 1014.0 |
| 20260504003255 | 68 | 113 | 0.9 | 3.5 | 0.00 | 0.00 | 0.00 | 74 | 1014.0 |
| 20260504001954 | 69 | 113 | 0.9 | 3.5 | 0.00 | 0.00 | 0.00 | 74 | 1014.0 |
| 20260504000653 | 70 | 113 | 0.9 | 3.5 | 0.00 | 0.00 | 0.00 | 74 | 1012.0 |
| 20260503235351 | 71 | 113 | 0.9 | 3.5 | 0.00 | 0.00 | 0.00 | 74 | 1012.0 |
| 20260503234050 | 72 | 113 | 0.9 | 3.5 | 0.00 | 0.00 | 0.00 | 74 | 1012.0 |
| 20260503232750 | 73 | 54 | 0.0 | 0.9 | 0.00 | 0.00 | 0.00 | 74 | 1013.0 |
| 20260503231449 | 74 | 54 | 0.0 | 0.9 | 0.00 | 0.00 | 0.00 | 74 | 1012.0 |
| 20260503230149 | 75 | 54 | 0.0 | 0.9 | 0.00 | 0.00 | 0.00 | 74 | 1012.0 |
| 20260503224848 | 76 | 54 | 0.0 | 0.9 | 0.00 | 0.00 | 0.00 | 74 | 1011.0 |
| 20260503223539 | 77 | 54 | 0.0 | 0.9 | 0.00 | 0.00 | 0.00 | 74 | 1010.0 |
| 20260503222235 | 78 | 318 | 0.0 | 0.9 | 0.00 | 0.00 | 0.00 | 74 | 1010.0 |
| 20260503220935 | 79 | 318 | 0.0 | 0.9 | 0.00 | 0.00 | 0.00 | 74 | 1010.0 |
| 20260503215635 | 80 | 318 | 0.0 | 0.9 | 0.00 | 0.00 | 0.00 | 74 | 1009.0 |
| 20260503214334 | 81 | 318 | 0.0 | 0.9 | 0.00 | 0.00 | 0.00 | 74 | 1009.0 |
| 20260503213033 | 82 | 318 | 0.0 | 0.9 | 0.00 | 0.00 | 0.00 | 74 | 1009.0 |
| 20260503211732 | 78 | 30 | 0.9 | 0.9 | 0.00 | 0.00 | 0.00 | 66 | 1010.0 |
| 20260503210431 | 79 | 30 | 0.9 | 0.9 | 0.00 | 0.00 | 0.00 | 66 | 1010.0 |
| 20260503205130 | 80 | 30 | 0.9 | 0.9 | 0.00 | 0.00 | 0.00 | 66 | 1009.0 |
| 20260503203828 | 81 | 30 | 0.9 | 0.9 | 0.00 | 0.00 | 0.00 | 66 | 1009.0 |
| 20260503202527 | 82 | 30 | 0.9 | 1.7 | 0.00 | 0.00 | 0.00 | 66 | 1010.0 |
| 20260503201222 | 79 | 37 | 0.9 | 0.9 | 0.00 | 0.00 | 0.00 | 68 | 1009.0 |
| 20260503195920 | 80 | 37 | 0.9 | 0.9 | 0.00 | 0.00 | 0.00 | 68 | 1009.0 |
| 20260503194619 | 81 | 37 | 0.9 | 0.9 | 0.00 | 0.00 | 0.00 | 68 | 1009.0 |
| 20260503193318 | 82 | 37 | 0.9 | 0.9 | 0.00 | 0.00 | 0.00 | 68 | 1009.0 |
| 20260503192015 | 83 | 37 | 0.9 | 0.9 | 0.00 | 0.00 | 0.00 | 68 | 1009.0 |
| 20260503190713 | 84 | 37 | 0.9 | 0.9 | 0.00 | 0.00 | 0.00 | 68 | 1009.0 |
| 20260503185411 | 85 | 37 | 0.9 | 0.9 | 0.00 | 0.00 | 0.00 | 68 | 1009.0 |
| 20260503184110 | 86 | 37 | 0.9 | 0.9 | 0.00 | 0.00 | 0.00 | 68 | 1010.0 |
| 20260503182810 | 87 | 37 | 0.9 | 1.7 | 0.00 | 0.00 | 0.00 | 68 | 1011.0 |
| 20260503181509 | 80 | 344 | 0.9 | 0.9 | 0.00 | 0.00 | 0.00 | 73 | 1011.0 |
| 20260503180204 | 81 | 344 | 0.9 | 0.9 | 0.00 | 0.00 | 0.00 | 73 | 1011.0 |
| 20260503174901 | 82 | 344 | 0.9 | 0.9 | 0.00 | 0.00 | 0.00 | 73 | 1011.0 |
| 20260503173600 | 83 | 344 | 0.9 | 0.9 | 0.00 | 0.00 | 0.00 | 73 | 1011.0 |
| 20260503172258 | 84 | 344 | 0.9 | 0.9 | 0.00 | 0.00 | 0.00 | 73 | 1012.0 |
| 20260503170957 | 85 | 344 | 0.9 | 0.9 | 0.00 | 0.00 | 0.00 | 73 | 1012.0 |